Time,TemperatureF,DewpointF,PressureIn,WindDirection,WindDirectionDegrees,WindSpeedMPH,WindSpeedGustMPH,Humidity,HourlyPrecipIn,Conditions,Clouds,dailyrainin,SolarRadiationWatts/m^2,SoftwareType,DateUTC
2013-02-13 00:00:00,27.2,20.3,29.93,SW,222,0.0,0.0,75,0.00,,,0.00,0,Wunderground v.1.15,2013-02-13 06:00:00,
2013-02-13 00:10:00,26.4,20.2,29.93,SW,222,0.0,0.0,77,0.00,,,0.00,0,Wunderground v.1.15,2013-02-13 06:10:00,
2013-02-13 00:19:00,26.1,20.2,29.93,SW,222,0.0,0.0,78,0.00,,,0.00,0,Wunderground v.1.15,2013-02-13 06:19:00,
2013-02-13 00:29:00,26.0,20.1,29.93,SW,222,0.0,0.0,78,0.00,,,0.00,0,Wunderground v.1.15,2013-02-13 06:29:00,
2013-02-13 00:39:00,25.8,20.2,29.93,SW,222,0.0,0.0,79,0.00,,,0.00,0,Wunderground v.1.15,2013-02-13 06:39:00,
2013-02-13 00:50:00,26.4,20.8,29.93,SW,222,0.0,0.0,79,0.00,,,0.00,0,Wunderground v.1.15,2013-02-13 06:50:00,
2013-02-13 01:00:00,26.3,20.4,29.93,SW,222,0.0,0.0,78,0.00,,,0.00,0,Wunderground v.1.15,2013-02-13 07:00:00,
2013-02-13 01:09:00,25.8,20.2,29.93,SW,222,0.0,0.0,79,0.00,,,0.00,0,Wunderground v.1.15,2013-02-13 07:09:00,
2013-02-13 01:20:00,26.0,20.4,29.93,SW,222,0.0,0.0,79,0.00,,,0.00,0,Wunderground v.1.15,2013-02-13 07:20:00,
2013-02-13 01:30:00,25.4,20.1,29.92,SW,222,0.0,0.0,80,0.00,,,0.00,0,Wunderground v.1.15,2013-02-13 07:30:00,
2013-02-13 01:39:00,25.6,20.3,29.92,SW,222,0.0,0.0,80,0.00,,,0.00,0,Wunderground v.1.15,2013-02-13 07:39:00,
2013-02-13 01:50:00,25.6,20.3,29.92,SW,222,0.0,0.0,80,0.00,,,0.00,0,Wunderground v.1.15,2013-02-13 07:50:00,
2013-02-13 02:00:00,25.4,20.1,29.92,SW,222,0.0,0.0,80,0.00,,,0.00,0,Wunderground v.1.15,2013-02-13 08:00:00,
2013-02-13 02:10:00,25.3,20.0,29.92,SW,222,0.0,0.0,80,0.00,,,0.00,0,Wunderground v.1.15,2013-02-13 08:10:00,
2013-02-13 02:20:00,24.8,19.5,29.92,SW,222,0.0,0.0,80,0.00,,,0.00,0,Wunderground v.1.15,2013-02-13 08:20:00,
2013-02-13 02:30:00,25.4,20.4,29.92,SW,222,0.0,0.0,81,0.00,,,0.00,0,Wunderground v.1.15,2013-02-13 08:30:00,
2013-02-13 02:40:00,26.0,20.7,29.91,SW,222,0.0,0.0,80,0.00,,,0.00,0,Wunderground v.1.15,2013-02-13 08:40:00,
2013-02-13 02:50:00,26.0,20.7,29.91,SW,222,0.0,0.0,80,0.00,,,0.00,0,Wunderground v.1.15,2013-02-13 08:50:00,
2013-02-13 02:59:00,25.1,19.8,29.91,SW,222,0.0,0.0,80,0.00,,,0.00,0,Wunderground v.1.15,2013-02-13 08:59:00,
2013-02-13 03:10:00,24.2,19.2,29.91,SW,222,0.0,0.0,81,0.00,,,0.00,0,Wunderground v.1.15,2013-02-13 09:10:00,
2013-02-13 03:19:00,24.1,19.4,29.91,SW,222,0.0,0.0,82,0.00,,,0.00,0,Wunderground v.1.15,2013-02-13 09:19:00,
2013-02-13 03:29:00,23.9,19.2,29.91,SW,222,0.0,0.0,82,0.00,,,0.00,0,Wunderground v.1.15,2013-02-13 09:29:00,
2013-02-13 05:50:00,25.1,20.7,29.89,SW,223,0.0,0.0,83,0.00,,,0.00,0,Wunderground v.1.15,2013-02-13 11:50:00,
2013-02-13 06:00:00,25.3,20.9,29.89,SW,223,0.0,0.0,83,0.00,,,0.00,0,Wunderground v.1.15,2013-02-13 12:00:00,
2013-02-13 06:10:00,25.7,21.5,29.89,SW,222,0.0,0.0,84,0.00,,,0.00,0,Wunderground v.1.15,2013-02-13 12:10:00,
2013-02-13 06:20:00,25.8,21.3,29.89,SW,222,0.0,0.0,83,0.00,,,0.00,0,Wunderground v.1.15,2013-02-13 12:20:00,
2013-02-13 06:30:00,25.0,20.3,29.88,SW,222,0.0,0.0,82,0.00,,,0.00,0,Wunderground v.1.15,2013-02-13 12:30:00,
2013-02-13 06:40:00,24.1,19.4,29.89,SW,222,0.0,0.0,82,0.00,,,0.00,0,Wunderground v.1.15,2013-02-13 12:40:00,
2013-02-13 06:50:00,23.5,19.4,29.89,SW,222,0.0,0.0,84,0.00,,,0.00,0,Wunderground v.1.15,2013-02-13 12:50:00,
2013-02-13 07:00:00,23.8,19.7,29.89,SW,222,0.0,0.0,84,0.00,,,0.00,0,Wunderground v.1.15,2013-02-13 13:00:00,
2013-02-13 07:10:00,24.2,20.3,29.89,SW,222,0.0,0.0,85,0.00,,,0.00,0,Wunderground v.1.15,2013-02-13 13:10:00,
2013-02-13 07:20:00,24.5,20.4,29.89,SW,222,0.0,0.0,84,0.00,,,0.00,5,Wunderground v.1.15,2013-02-13 13:20:00,
2013-02-13 07:30:00,24.7,20.8,29.90,SW,222,0.0,0.0,85,0.00,,,0.00,14,Wunderground v.1.15,2013-02-13 13:30:00,
2013-02-13 07:40:00,25.3,21.1,29.90,SW,222,0.0,0.0,84,0.00,,,0.00,47,Wunderground v.1.15,2013-02-13 13:40:00,
2013-02-13 07:50:00,25.8,21.6,29.90,SW,222,0.0,0.0,84,0.00,,,0.00,77,Wunderground v.1.15,2013-02-13 13:50:00,
2013-02-13 08:00:00,26.4,21.9,29.90,SW,223,0.0,0.0,83,0.00,,,0.00,83,Wunderground v.1.15,2013-02-13 14:00:00,
2013-02-13 08:10:00,26.9,22.4,29.90,SSE,156,0.0,0.0,83,0.00,,,0.00,105,Wunderground v.1.15,2013-02-13 14:10:00,
2013-02-13 08:20:00,27.5,23.3,29.90,WSW,251,0.0,0.0,84,0.00,,,0.00,155,Wunderground v.1.15,2013-02-13 14:20:00,
2013-02-13 08:30:00,28.4,24.2,29.90,WSW,251,0.0,0.0,84,0.00,,,0.00,241,Wunderground v.1.15,2013-02-13 14:30:00,
2013-02-13 08:40:00,29.1,24.6,29.90,WSW,249,0.0,0.0,83,0.00,,,0.00,107,Wunderground v.1.15,2013-02-13 14:40:00,
2013-02-13 08:50:00,29.8,24.7,29.90,WSW,248,0.0,2.0,81,0.00,,,0.00,116,Wunderground v.1.15,2013-02-13 14:50:00,
2013-02-13 09:00:00,30.1,24.7,29.89,WNW,291,0.0,0.0,80,0.00,,,0.00,123,Wunderground v.1.15,2013-02-13 15:00:00,
2013-02-13 09:10:00,30.7,25.3,29.90,NW,315,0.0,0.0,80,0.00,,,0.00,366,Wunderground v.1.15,2013-02-13 15:10:00,
2013-02-13 09:20:00,31.8,25.7,29.90,WSW,244,0.0,0.0,78,0.00,,,0.00,432,Wunderground v.1.15,2013-02-13 15:20:00,
2013-02-13 09:30:00,32.8,26.4,29.89,WSW,257,1.0,1.0,77,0.00,,,0.00,200,Wunderground v.1.15,2013-02-13 15:30:00,
2013-02-13 09:40:00,33.5,27.1,29.89,WSW,252,0.0,0.0,77,0.00,,,0.00,167,Wunderground v.1.15,2013-02-13 15:40:00,
2013-02-13 09:50:00,33.7,26.9,29.89,SW,214,0.0,0.0,76,0.00,,,0.00,165,Wunderground v.1.15,2013-02-13 15:50:00,
2013-02-13 10:00:00,34.0,27.2,29.89,SW,214,0.0,0.0,76,0.00,,,0.00,322,Wunderground v.1.15,2013-02-13 16:00:00,
2013-02-13 10:10:00,35.2,28.1,29.88,WSW,244,0.0,1.0,75,0.00,,,0.00,431,Wunderground v.1.15,2013-02-13 16:10:00,
2013-02-13 10:20:00,36.3,28.1,29.88,West,261,1.0,2.0,72,0.00,,,0.00,450,Wunderground v.1.15,2013-02-13 16:20:00,
2013-02-13 10:30:00,37.6,28.7,29.88,SW,224,2.0,6.0,70,0.00,,,0.00,468,Wunderground v.1.15,2013-02-13 16:30:00,
2013-02-13 10:40:00,38.3,28.7,29.87,WSW,238,3.0,3.0,68,0.00,,,0.00,485,Wunderground v.1.15,2013-02-13 16:40:00,
2013-02-13 10:50:00,39.6,29.2,29.87,WSW,250,2.0,2.0,66,0.00,,,0.00,499,Wunderground v.1.15,2013-02-13 16:50:00,
2013-02-13 11:00:00,40.8,29.6,29.86,SW,220,1.0,1.0,64,0.00,,,0.00,519,Wunderground v.1.15,2013-02-13 17:00:00,
2013-02-13 11:10:00,41.9,29.0,29.86,WSW,254,3.0,3.0,60,0.00,,,0.00,531,Wunderground v.1.15,2013-02-13 17:10:00,
2013-02-13 11:20:00,42.5,28.3,29.86,SW,232,4.0,6.0,57,0.00,,,0.00,543,Wunderground v.1.15,2013-02-13 17:20:00,
2013-02-13 11:30:00,42.9,28.7,29.86,WSW,240,5.0,5.0,57,0.00,,,0.00,557,Wunderground v.1.15,2013-02-13 17:30:00,
2013-02-13 11:40:00,44.5,29.8,29.86,WSW,242,2.0,2.0,56,0.00,,,0.00,568,Wunderground v.1.15,2013-02-13 17:40:00,
2013-02-13 11:50:00,45.2,30.0,29.86,SW,229,2.0,2.0,55,0.00,,,0.00,577,Wunderground v.1.15,2013-02-13 17:50:00,
2013-02-13 12:00:00,45.7,29.5,29.85,WSW,256,3.0,3.0,53,0.00,,,0.00,582,Wunderground v.1.15,2013-02-13 18:00:00,
2013-02-13 12:10:00,46.1,28.5,29.84,West,260,3.0,3.0,50,0.00,,,0.00,587,Wunderground v.1.15,2013-02-13 18:10:00,
2013-02-13 12:20:00,46.7,29.5,29.84,SW,219,4.0,10.0,51,0.00,,,0.00,591,Wunderground v.1.15,2013-02-13 18:20:00,
2013-02-13 12:30:00,47.6,29.9,29.83,WSW,239,6.0,6.0,50,0.00,,,0.00,594,Wunderground v.1.15,2013-02-13 18:30:00,
2013-02-13 12:40:00,48.9,32.0,29.81,SW,228,4.0,4.0,52,0.00,,,0.00,594,Wunderground v.1.15,2013-02-13 18:40:00,
2013-02-13 12:50:00,49.2,29.8,29.81,SW,221,5.0,5.0,47,0.00,,,0.00,592,Wunderground v.1.15,2013-02-13 18:50:00,
2013-02-13 13:00:00,49.8,30.4,29.81,SW,222,5.0,10.0,47,0.00,,,0.00,592,Wunderground v.1.15,2013-02-13 19:00:00,
2013-02-13 13:10:00,50.2,30.2,29.80,WSW,240,7.0,11.0,46,0.00,,,0.00,601,Wunderground v.1.15,2013-02-13 19:10:00,
2013-02-13 13:20:00,50.7,29.0,29.80,WSW,257,4.0,9.0,43,0.00,,,0.00,589,Wunderground v.1.15,2013-02-13 19:20:00,
2013-02-13 13:30:00,51.6,30.4,29.79,WSW,242,5.0,5.0,44,0.00,,,0.00,587,Wunderground v.1.15,2013-02-13 19:30:00,
2013-02-13 13:40:00,51.9,30.1,29.79,WSW,244,6.0,10.0,43,0.00,,,0.00,571,Wunderground v.1.15,2013-02-13 19:40:00,
2013-02-13 13:50:00,51.9,28.9,29.79,WSW,239,7.0,9.0,41,0.00,,,0.00,554,Wunderground v.1.15,2013-02-13 19:50:00,
2013-02-13 14:00:00,52.6,30.7,29.78,WSW,248,4.0,5.0,43,0.00,,,0.00,538,Wunderground v.1.15,2013-02-13 20:00:00,
2013-02-13 14:10:00,53.1,28.8,29.78,SW,236,4.0,5.0,39,0.00,,,0.00,522,Wunderground v.1.15,2013-02-13 20:10:00,
2013-02-13 14:20:00,53.5,29.1,29.78,SW,221,4.0,12.0,39,0.00,,,0.00,512,Wunderground v.1.15,2013-02-13 20:20:00,
2013-02-13 14:30:00,53.5,29.7,29.77,WSW,250,5.0,5.0,40,0.00,,,0.00,494,Wunderground v.1.15,2013-02-13 20:30:00,
2013-02-13 14:40:00,53.5,28.5,29.76,WSW,237,6.0,9.0,38,0.00,,,0.00,473,Wunderground v.1.15,2013-02-13 20:40:00,
2013-02-13 14:50:00,53.6,28.6,29.76,WSW,250,6.0,9.0,38,0.00,,,0.00,452,Wunderground v.1.15,2013-02-13 20:50:00,
2013-02-13 15:00:00,53.5,27.2,29.76,WSW,257,6.0,10.0,36,0.00,,,0.00,434,Wunderground v.1.15,2013-02-13 21:00:00,
2013-02-13 15:10:00,53.3,28.3,29.76,WSW,245,6.0,11.0,38,0.00,,,0.00,411,Wunderground v.1.15,2013-02-13 21:10:00,
2013-02-13 15:20:00,53.5,29.1,29.76,SW,232,6.0,6.0,39,0.00,,,0.00,388,Wunderground v.1.15,2013-02-13 21:20:00,
2013-02-13 15:30:00,53.5,29.7,29.76,WSW,238,5.0,5.0,40,0.00,,,0.00,366,Wunderground v.1.15,2013-02-13 21:30:00,
2013-02-13 15:40:00,53.5,29.1,29.75,West,279,5.0,5.0,39,0.00,,,0.00,345,Wunderground v.1.15,2013-02-13 21:40:00,
2013-02-13 15:50:00,53.2,27.6,29.75,SW,229,7.0,7.0,37,0.00,,,0.00,141,Wunderground v.1.15,2013-02-13 21:50:00,
2013-02-13 16:00:00,52.0,29.0,29.75,WSW,238,5.0,5.0,41,0.00,,,0.00,179,Wunderground v.1.15,2013-02-13 22:00:00,
2013-02-13 16:10:00,52.0,29.6,29.75,WSW,237,2.0,2.0,42,0.00,,,0.00,171,Wunderground v.1.15,2013-02-13 22:10:00,
2013-02-13 16:20:00,52.3,28.1,29.75,WSW,254,4.0,4.0,39,0.00,,,0.00,148,Wunderground v.1.15,2013-02-13 22:20:00,
2013-02-13 16:30:00,51.9,28.9,29.75,WSW,247,2.0,2.0,41,0.00,,,0.00,142,Wunderground v.1.15,2013-02-13 22:30:00,
2013-02-13 16:40:00,51.3,29.0,29.75,WSW,248,1.0,1.0,42,0.00,,,0.00,98,Wunderground v.1.15,2013-02-13 22:40:00,
2013-02-13 16:50:00,50.7,29.0,29.75,WSW,242,1.0,2.0,43,0.00,,,0.00,169,Wunderground v.1.15,2013-02-13 22:50:00,
2013-02-13 17:00:00,51.4,28.5,29.75,WSW,242,1.0,1.0,41,0.00,,,0.00,148,Wunderground v.1.15,2013-02-13 23:00:00,
2013-02-13 17:10:00,51.0,27.5,29.75,WSW,245,2.0,2.0,40,0.00,,,0.00,53,Wunderground v.1.15,2013-02-13 23:10:00,
2013-02-13 17:20:00,50.4,28.1,29.75,WSW,238,2.0,2.0,42,0.00,,,0.00,97,Wunderground v.1.15,2013-02-13 23:20:00,
2013-02-13 17:30:00,50.4,28.7,29.75,SW,229,2.0,2.0,43,0.00,,,0.00,32,Wunderground v.1.15,2013-02-13 23:30:00,
2013-02-13 17:40:00,48.8,27.8,29.75,SW,232,1.0,1.0,44,0.00,,,0.00,16,Wunderground v.1.15,2013-02-13 23:40:00,
2013-02-13 17:50:00,47.3,27.5,29.75,SW,232,1.0,1.0,46,0.00,,,0.00,7,Wunderground v.1.15,2013-02-13 23:50:00,
2013-02-13 18:00:00,45.7,27.6,29.75,SW,232,2.0,2.0,49,0.00,,,0.00,0,Wunderground v.1.15,2013-02-14 00:00:00,
2013-02-13 18:10:00,45.1,27.6,29.75,SW,231,2.0,2.0,50,0.00,,,0.00,0,Wunderground v.1.15,2013-02-14 00:10:00,
2013-02-13 18:20:00,45.4,27.8,29.75,SW,229,2.0,2.0,50,0.00,,,0.00,0,Wunderground v.1.15,2013-02-14 00:20:00,
2013-02-13 18:30:00,45.7,27.6,29.75,SW,220,2.0,3.0,49,0.00,,,0.00,0,Wunderground v.1.15,2013-02-14 00:30:00,
2013-02-13 18:40:00,44.6,27.6,29.75,SW,218,1.0,1.0,51,0.00,,,0.00,0,Wunderground v.1.15,2013-02-14 00:40:00,
2013-02-13 18:50:00,43.6,27.6,29.75,SW,218,0.0,0.0,53,0.00,,,0.00,0,Wunderground v.1.15,2013-02-14 00:50:00,
2013-02-13 19:00:00,42.8,27.7,29.75,SW,218,0.0,0.0,55,0.00,,,0.00,0,Wunderground v.1.15,2013-02-14 01:00:00,
2013-02-13 19:10:00,42.2,27.6,29.76,SW,216,0.0,0.0,56,0.00,,,0.00,0,Wunderground v.1.15,2013-02-14 01:10:00,
2013-02-13 19:20:00,42.9,27.8,29.76,SW,222,1.0,2.0,55,0.00,,,0.00,0,Wunderground v.1.15,2013-02-14 01:20:00,
2013-02-13 19:30:00,43.2,28.1,29.76,SW,223,4.0,4.0,55,0.00,,,0.00,0,Wunderground v.1.15,2013-02-14 01:30:00,
2013-02-13 19:40:00,42.8,27.7,29.76,SW,222,4.0,4.0,55,0.00,,,0.00,0,Wunderground v.1.15,2013-02-14 01:40:00,
2013-02-13 19:50:00,42.2,27.2,29.76,SW,219,4.0,5.0,55,0.00,,,0.00,0,Wunderground v.1.15,2013-02-14 01:50:00,
2013-02-13 20:00:00,41.8,27.7,29.77,SW,221,4.0,4.0,57,0.00,,,0.00,0,Wunderground v.1.15,2013-02-14 02:00:00,
2013-02-13 20:10:00,41.2,27.5,29.77,SW,221,3.0,4.0,58,0.00,,,0.00,0,Wunderground v.1.15,2013-02-14 02:10:00,
2013-02-13 20:20:00,40.9,27.7,29.77,SW,221,3.0,3.0,59,0.00,,,0.00,0,Wunderground v.1.15,2013-02-14 02:20:00,
2013-02-13 20:30:00,40.8,27.6,29.77,SW,221,1.0,1.0,59,0.00,,,0.00,0,Wunderground v.1.15,2013-02-14 02:30:00,
2013-02-13 20:40:00,40.5,27.7,29.77,SW,221,0.0,0.0,60,0.00,,,0.00,0,Wunderground v.1.15,2013-02-14 02:40:00,
2013-02-13 20:50:00,40.9,27.7,29.77,SW,221,2.0,2.0,59,0.00,,,0.00,0,Wunderground v.1.15,2013-02-14 02:50:00,
2013-02-13 21:00:00,40.6,27.8,29.76,SW,221,1.0,1.0,60,0.00,,,0.00,0,Wunderground v.1.15,2013-02-14 03:00:00,
2013-02-13 21:10:00,39.5,27.5,29.77,SW,222,0.0,0.0,62,0.00,,,0.00,0,Wunderground v.1.15,2013-02-14 03:10:00,
2013-02-13 21:20:00,39.1,27.6,29.77,SW,221,2.0,3.0,63,0.00,,,0.00,0,Wunderground v.1.15,2013-02-14 03:20:00,
2013-02-13 21:30:00,38.8,27.7,29.76,SW,223,4.0,5.0,64,0.00,,,0.00,0,Wunderground v.1.15,2013-02-14 03:30:00,
2013-02-13 21:40:00,39.3,27.7,29.76,SW,223,1.0,1.0,63,0.00,,,0.00,0,Wunderground v.1.15,2013-02-14 03:40:00,
2013-02-13 21:50:00,39.9,28.3,29.76,SW,233,1.0,1.0,63,0.00,,,0.00,0,Wunderground v.1.15,2013-02-14 03:50:00,
2013-02-13 22:00:00,39.9,28.3,29.77,WSW,257,1.0,3.0,63,0.00,,,0.00,0,Wunderground v.1.15,2013-02-14 04:00:00,
2013-02-13 22:10:00,40.2,28.6,29.77,WSW,257,2.0,2.0,63,0.00,,,0.00,0,Wunderground v.1.15,2013-02-14 04:10:00,
2013-02-13 22:20:00,40.5,28.9,29.77,WSW,253,2.0,2.0,63,0.00,,,0.00,0,Wunderground v.1.15,2013-02-14 04:20:00,
2013-02-13 22:30:00,40.3,28.7,29.77,West,259,2.0,2.0,63,0.00,,,0.00,0,Wunderground v.1.15,2013-02-14 04:30:00,
2013-02-13 22:40:00,40.5,29.3,29.77,WSW,254,1.0,3.0,64,0.00,,,0.00,0,Wunderground v.1.15,2013-02-14 04:40:00,
2013-02-13 22:50:00,40.9,29.3,29.77,WSW,246,1.0,2.0,63,0.00,,,0.00,0,Wunderground v.1.15,2013-02-14 04:50:00,
2013-02-13 23:00:00,40.8,29.6,29.77,WSW,256,1.0,1.0,64,0.00,,,0.00,0,Wunderground v.1.15,2013-02-14 05:00:00,
2013-02-13 23:10:00,40.6,29.4,29.78,West,267,1.0,1.0,64,0.00,,,0.00,0,Wunderground v.1.15,2013-02-14 05:10:00,
2013-02-13 23:20:00,40.2,29.4,29.78,West,267,0.0,0.0,65,0.00,,,0.00,0,Wunderground v.1.15,2013-02-14 05:20:00,
2013-02-13 23:30:00,39.9,29.1,29.77,West,267,0.0,0.0,65,0.00,,,0.00,0,Wunderground v.1.15,2013-02-14 05:30:00,
2013-02-13 23:40:00,39.2,29.2,29.77,West,267,0.0,0.0,67,0.00,,,0.00,0,Wunderground v.1.15,2013-02-14 05:40:00,
2013-02-13 23:50:00,38.3,28.7,29.77,West,267,0.0,0.0,68,0.00,,,0.00,0,Wunderground v.1.15,2013-02-14 05:50:00,